Weather History for KATS - November, 2012

Change the Weather History Date:

Friday, November 9, 2012

  Actual Average Record
Temperature  
Mean Temperature 65 °F -  
Max Temperature 80 °F 69 °F 89 °F (1950)
Min Temperature 50 °F 34 °F 19 °F (1948)
Growing Degree Days 15 (Base 50)    
Moisture  
Dew Point 35 °F    
Average Humidity 34    
Maximum Humidity 51    
Minimum Humidity 20    
Precipitation  
Precipitation 0.00 in - - ()
Sea Level Pressure  
Sea Level Pressure 29.90 in    
Wind  
Wind Speed 14 mph (SW)    
Max Wind Speed 29 mph    
Max Gust Speed 38 mph    
Visibility 10 miles    
Events      
Averages and records for this station are not official NWS values.
T = Trace of Precipitation, MM = Missing Value Source: NWS Daily Summary

Daily Weather History Graph

Daily Weather History Graph

Search for Another Location

Airport or City:

Trip Planner

Search our weather history database for the weather conditions in past years. The results will help you decide how hot, cold, wet, or windy it might be!

Date:

Astronomy

Nov. 09, 2012 Rise Set
Actual Time 6:23 AM MST 4:59 PM MST
Civil Twilight 5:57 AM MST 5:25 PM MST
Nautical Twilight 5:27 AM MST 5:55 PM MST
Astronomical Twilight 4:58 AM MST 6:24 PM MST
Moon 1:39 AM MST (11/9) 2:01 PM MST (11/9)
Length of Visible Light 11h 28m
Length of Day
10h 36m
Waning Crescent, 22% of the Moon is Illuminated
Nov 9
Waning Crescent
Nov 13
New
Nov 20
First Quarter
Nov 28
Full
Dec 6
Last Quarter

Hourly Weather History & Observations

Time (MST) Temp. Dew Point Humidity Pressure Visibility Wind Dir Wind Speed Gust Speed Precip Events Conditions
12:15 AM 59.0 °F 28.4 °F 31% 29.93 in 10.0 mi SW 13.8 mph - N/A   Clear
12:35 AM 59.0 °F 28.4 °F 31% 29.93 in 10.0 mi SW 15.0 mph - N/A   Clear
12:55 AM 57.2 °F 28.4 °F 33% 29.93 in 10.0 mi SW 13.8 mph - N/A   Clear
1:15 AM 55.4 °F 26.6 °F 33% 29.93 in 10.0 mi SSW 13.8 mph - N/A   Clear
1:35 AM 53.6 °F 26.6 °F 35% 29.92 in 10.0 mi SW 11.5 mph - N/A   Clear
1:55 AM 53.6 °F 26.6 °F 35% 29.93 in 10.0 mi SW 11.5 mph - N/A   Clear
2:15 AM 55.4 °F 28.4 °F 36% 29.93 in 10.0 mi WSW 11.5 mph - N/A   Clear
2:35 AM 55.4 °F 26.6 °F 33% 29.93 in 10.0 mi WSW 12.7 mph - N/A   Clear
2:55 AM 55.4 °F 26.6 °F 33% 29.93 in 10.0 mi WSW 13.8 mph - N/A   Clear
3:15 AM 55.4 °F 26.6 °F 33% 29.93 in 10.0 mi SW 13.8 mph - N/A   Clear
3:35 AM 55.4 °F 26.6 °F 33% 29.93 in 10.0 mi SW 15.0 mph - N/A   Clear
3:55 AM 55.4 °F 28.4 °F 36% 29.93 in 10.0 mi SW 13.8 mph - N/A   Clear
4:15 AM 55.4 °F 28.4 °F 36% 29.93 in 10.0 mi SW 12.7 mph - N/A   Clear
4:35 AM 53.6 °F 28.4 °F 38% 29.93 in 10.0 mi SW 11.5 mph - N/A   Clear
5:15 AM 50.0 °F 28.4 °F 43% 29.94 in 10.0 mi SW 6.9 mph - N/A   Clear
5:35 AM 50.0 °F 28.4 °F 43% 29.94 in 10.0 mi South 9.2 mph - N/A   Clear
5:55 AM 50.0 °F 30.2 °F 47% 29.93 in 10.0 mi SW 9.2 mph - N/A   Clear
6:15 AM 51.8 °F 32.0 °F 47% 29.94 in 10.0 mi SE 6.9 mph - N/A   Clear
6:35 AM 51.8 °F 32.0 °F 47% 29.95 in 10.0 mi South 4.6 mph - N/A   Clear
6:55 AM 53.6 °F 32.0 °F 44% 29.95 in 10.0 mi SSE 5.8 mph - N/A   Clear
7:15 AM 55.4 °F 32.0 °F 41% 29.96 in 10.0 mi SSE 4.6 mph - N/A   Clear
7:35 AM 57.2 °F 32.0 °F 38% 29.97 in 10.0 mi SE 3.5 mph - N/A   Clear
7:55 AM 62.6 °F 35.6 °F 37% 29.98 in 10.0 mi ESE 5.8 mph - N/A   Clear
8:15 AM 66.2 °F 37.4 °F 35% 29.98 in 10.0 mi SSW 8.1 mph - N/A   Clear
8:35 AM 66.2 °F 37.4 °F 35% 29.98 in 10.0 mi South 10.4 mph - N/A   Clear
8:55 AM 68.0 °F 37.4 °F 33% 29.98 in 10.0 mi South 9.2 mph - N/A   Clear
9:15 AM 73.4 °F 37.4 °F 27% 29.97 in 10.0 mi WSW 15.0 mph 23.0 mph N/A   Clear
9:35 AM 75.2 °F 37.4 °F 25% 29.96 in 10.0 mi WSW 20.7 mph 26.5 mph N/A   Clear
9:55 AM 75.2 °F 37.4 °F 25% 29.96 in 10.0 mi WSW 17.3 mph 25.3 mph N/A   Clear
10:15 AM 77.0 °F 37.4 °F 24% 29.95 in 10.0 mi WSW 26.5 mph 32.2 mph N/A   Clear
10:35 AM 77.0 °F 37.4 °F 24% 29.94 in 10.0 mi WSW 19.6 mph 29.9 mph N/A   Clear
10:55 AM 78.8 °F 37.4 °F 23% 29.93 in 10.0 mi WSW 27.6 mph 32.2 mph N/A   Clear
11:15 AM 78.8 °F 37.4 °F 23% 29.93 in 10.0 mi West 25.3 mph 32.2 mph N/A   Clear
11:55 AM 78.8 °F 37.4 °F 23% 29.90 in 10.0 mi WSW 21.9 mph 28.8 mph N/A   Clear
12:15 PM 80.6 °F 37.4 °F 21% 29.89 in 10.0 mi WSW 26.5 mph 31.1 mph N/A   Clear
12:35 PM 80.6 °F 37.4 °F 21% 29.88 in 10.0 mi SW 26.5 mph 33.4 mph N/A   Clear
12:55 PM 80.6 °F 37.4 °F 21% 29.87 in 10.0 mi WSW 23.0 mph 32.2 mph N/A   Clear
1:15 PM 80.6 °F 37.4 °F 21% 29.86 in 10.0 mi WSW 25.3 mph 33.4 mph N/A   Clear
1:35 PM 80.6 °F 35.6 °F 20% 29.85 in 10.0 mi WSW 25.3 mph 33.4 mph N/A   Clear
1:55 PM 80.6 °F 37.4 °F 21% 29.85 in 10.0 mi WSW 28.8 mph 36.8 mph N/A   Partly Cloudy
2:15 PM 80.6 °F 37.4 °F 21% 29.85 in 10.0 mi SW 25.3 mph 32.2 mph N/A   Partly Cloudy
2:35 PM 78.8 °F 35.6 °F 21% 29.85 in 10.0 mi SW 27.6 mph 38.0 mph N/A   Clear
2:55 PM 80.6 °F 37.4 °F 21% 29.85 in 10.0 mi WSW 27.6 mph 36.8 mph N/A   Scattered Clouds
3:15 PM - - N/A% - 10.0 mi North - - N/A   Partly Cloudy
3:35 PM 78.8 °F 35.6 °F 21% 29.85 in 10.0 mi SW 21.9 mph 31.1 mph N/A   Clear
3:55 PM 77.0 °F 37.4 °F 24% 29.85 in 10.0 mi SW 19.6 mph 29.9 mph N/A   Clear
4:15 PM 77.0 °F 37.4 °F 24% 29.84 in 10.0 mi WSW 17.3 mph 24.2 mph N/A   Clear
4:35 PM 75.2 °F 35.6 °F 24% 29.84 in 10.0 mi SW 15.0 mph 25.3 mph N/A   Clear
4:55 PM 73.4 °F 37.4 °F 27% 29.84 in 10.0 mi SW 11.5 mph - N/A   Clear
5:15 PM 71.6 °F 35.6 °F 27% 29.85 in 10.0 mi SW 9.2 mph - N/A   Clear
5:35 PM 68.0 °F 35.6 °F 30% 29.86 in 10.0 mi SW 8.1 mph - N/A   Clear
5:55 PM 66.2 °F 35.6 °F 32% 29.87 in 10.0 mi WSW 6.9 mph - N/A   Clear
6:15 PM 64.4 °F 35.6 °F 34% 29.87 in 10.0 mi SW 9.2 mph - N/A   Partly Cloudy
6:55 PM 68.0 °F 35.6 °F 30% 29.88 in 10.0 mi SW 12.7 mph - N/A   Scattered Clouds
7:15 PM 66.2 °F 35.6 °F 32% 29.87 in 10.0 mi West 8.1 mph - N/A   Partly Cloudy
7:35 PM 62.6 °F 35.6 °F 37% 29.87 in 10.0 mi SW 6.9 mph - N/A   Clear
7:55 PM 60.8 °F 37.4 °F 42% 29.86 in 10.0 mi SW 8.1 mph - N/A   Clear
8:15 PM 59.0 °F 37.4 °F 45% 29.87 in 10.0 mi WSW 10.4 mph - N/A   Clear
8:35 PM 62.6 °F 39.2 °F 42% 29.87 in 10.0 mi WSW 10.4 mph - N/A   Clear
8:55 PM 59.0 °F 39.2 °F 48% 29.88 in 10.0 mi SW 6.9 mph - N/A   Clear
9:15 PM 59.0 °F 39.2 °F 48% 29.88 in 10.0 mi South 6.9 mph - N/A   Clear
9:35 PM 59.0 °F 39.2 °F 48% 29.88 in 10.0 mi SE 11.5 mph - N/A   Partly Cloudy
9:55 PM 59.0 °F 39.2 °F 48% 29.87 in 10.0 mi SSE 4.6 mph - N/A   Clear
10:15 PM 57.2 °F 39.2 °F 51% 29.87 in 10.0 mi SW 5.8 mph - N/A   Clear
10:35 PM 57.2 °F 39.2 °F 51% 29.86 in 10.0 mi South 4.6 mph - N/A   Clear
10:55 PM 59.0 °F 39.2 °F 48% 29.86 in 10.0 mi SSE 8.1 mph - N/A   Partly Cloudy
11:15 PM 57.2 °F 39.2 °F 51% 29.87 in 10.0 mi SSE 5.8 mph - N/A   Mostly Cloudy
11:35 PM 60.8 °F 41.0 °F 48% 29.86 in 10.0 mi South 15.0 mph - N/A   Scattered Clouds
11:55 PM 60.8 °F 41.0 °F 48% 29.86 in 10.0 mi South 12.7 mph - N/A   Partly Cloudy